Brainerd, MN

1:27 PM CDT on March 29, 2017 (GMT -0500)
Brainerd-Crow Wing County Regional

Weather History for KBRD - September, 2012

Change the Weather History Date:

Saturday, September 8, 2012

  Actual Average Record
Temperature  
Mean Temperature 56 °F -  
Max Temperature 69 °F 72 °F 94 °F (1963)
Min Temperature 43 °F 46 °F 31 °F (1975)
Degree Days  
Heating Degree Days 9    
Growing Degree Days 6 (Base 50)    
Moisture  
Dew Point 45 °F    
Average Humidity 67    
Maximum Humidity 93    
Minimum Humidity 36    
Precipitation  
Precipitation 0.02 in - - ()
Sea Level Pressure  
Sea Level Pressure 29.97 in    
Wind  
Wind Speed 8 mph (WNW)    
Max Wind Speed 23 mph    
Max Gust Speed 38 mph    
Visibility 10 miles    
Events      
Averages and records for this station are not official NWS values.
T = Trace of Precipitation, MM = Missing Value Source: NWS Daily Summary

Daily Weather History Graph

Daily Weather History Graph

Search for Another Location

Airport or City:

Trip Planner

Search our weather history database for the weather conditions in past years. The results will help you decide how hot, cold, wet, or windy it might be!

Date:

Astronomy

Sep. 08, 2012 Rise Set
Actual Time 6:46 AM CDT 7:40 PM CDT
Civil Twilight 6:15 AM CDT 8:11 PM CDT
Nautical Twilight 5:39 AM CDT 8:47 PM CDT
Astronomical Twilight 5:00 AM CDT 9:26 PM CDT
Moon No Moon Rise 2:54 PM CDT (9/8)
Length of Visible Light 13h 55m
Length of Day
12h 54m
Waning Gibbous, 48% of the Moon is Illuminated
Sep 8
Waning Gibbous
Sep 15
New
Sep 22
First Quarter
Sep 29
Full
Oct 8
Last Quarter

Hourly Weather History & Observations

Time (CDT) Temp. Windchill Dew Point Humidity Pressure Visibility Wind Dir Wind Speed Gust Speed Precip Events Conditions
12:53 AM 51.1 °F - 44.1 °F 77% 30.03 in 10.0 mi Calm Calm - N/A   Clear
1:53 AM 51.1 °F - 45.0 °F 80% 30.04 in 10.0 mi West 3.5 mph - N/A   Clear
2:53 AM 45.0 °F - 42.1 °F 90% 30.03 in 10.0 mi Calm Calm - N/A   Clear
3:53 AM 48.0 °F - 44.1 °F 86% 30.01 in 10.0 mi WSW 5.8 mph - N/A   Clear
4:53 AM 43.0 °F 40.3 °F 41.0 °F 93% 29.99 in 9.0 mi South 4.6 mph - N/A   Clear
5:53 AM 46.0 °F 43.1 °F 42.1 °F 86% 29.97 in 10.0 mi SSW 5.8 mph - N/A   Clear
6:53 AM 46.0 °F 42.5 °F 42.1 °F 86% 29.96 in 10.0 mi SSW 6.9 mph - N/A   Clear
7:53 AM 51.1 °F - 46.0 °F 83% 29.94 in 10.0 mi SW 6.9 mph - N/A   Clear
8:53 AM 55.9 °F - 45.0 °F 67% 29.91 in 10.0 mi WSW 15.0 mph - N/A   Partly Cloudy
9:53 AM 61.0 °F - 45.0 °F 56% 29.88 in 10.0 mi West 11.5 mph - N/A   Scattered Clouds
10:53 AM 64.9 °F - 46.0 °F 50% 29.86 in 10.0 mi WNW 11.5 mph - N/A   Partly Cloudy
11:53 AM 64.0 °F - 46.9 °F 54% 29.87 in 10.0 mi NW 10.4 mph 18.4 mph 0.02 in   Mostly Cloudy
12:53 PM 66.9 °F - 46.9 °F 49% 29.88 in 10.0 mi NW 16.1 mph 25.3 mph N/A   Partly Cloudy
1:53 PM 69.1 °F - 41.0 °F 36% 29.89 in 10.0 mi NNW 21.9 mph 29.9 mph N/A   Mostly Cloudy
2:53 PM 66.0 °F - 42.1 °F 42% 29.91 in 10.0 mi NW 16.1 mph 27.6 mph N/A   Overcast
3:53 PM 64.9 °F - 42.1 °F 43% 29.93 in 10.0 mi NNW 19.6 mph 28.8 mph N/A   Overcast
4:53 PM 63.0 °F - 44.1 °F 50% 29.96 in 10.0 mi NNW 21.9 mph 38.0 mph N/A   Overcast
5:53 PM 62.1 °F - 46.0 °F 56% 29.98 in 10.0 mi NNW 23.0 mph 29.9 mph N/A   Overcast
6:53 PM 61.0 °F - 46.0 °F 58% 30.00 in 10.0 mi NNW 18.4 mph 23.0 mph N/A   Overcast
7:53 PM 60.1 °F - 46.9 °F 62% 30.03 in 10.0 mi NNW 15.0 mph 24.2 mph N/A   Overcast
8:53 PM 59.0 °F - 48.9 °F 69% 30.05 in 10.0 mi NNW 12.7 mph - N/A   Overcast
10:53 PM 57.9 °F - 48.9 °F 72% 30.07 in 10.0 mi NW 10.4 mph - N/A   Mostly Cloudy
11:44 PM 57.2 °F - 50.0 °F 77% 30.08 in 10.0 mi NNW 8.1 mph - N/A   Mostly Cloudy
11:53 PM 57.0 °F - 50.0 °F 77% 30.09 in 10.0 mi NNW 9.2 mph - N/A   Mostly Cloudy